533  
ASUS42 KRAH 300810  
RWRRAH  
NORTH CAROLINA WEATHER ROUNDUP  
NATIONAL WEATHER SERVICE RALEIGH NC  
400 AM EDT THU MAR 30 2017  
 
NOTE: "FAIR" INDICATES FEW OR NO CLOUDS BELOW 12,000 FEET WITH NO  
SIGNIFICANT WEATHER AND/OR S TO VISIBILITY
.  
 
NCZ001-053-055-056-065-067-300900-  
WESTERN NORTH CAROLINA  
 
CITY SKY/WX TMP DP RH WIND PRES REMARKS
 
ASHEVILLE CLOUDY 53 49 86 CALM 30.07R  
JEFFERSON CLOUDY 52 49 89 CALM 30.10S  
MORGANTON MOCLDY 58 53 83 NE3 30.12R  
HICKORY CLOUDY 58 54 86 NE3 30.06S  
RUTHERFORDTON CLOUDY 61 53 76 SE5 30.08R  
MOUNT AIRY CLOUDY 61 53 75 E8 30.11S  
BOONE PTCLDY 46 46 100 CALM 30.11S  

 
 
NCZ021-022-025-041-071-084-088-300900-  
CENTRAL NORTH CAROLINA  
 
CITY SKY/WX TMP DP RH WIND PRES REMARKS
 
CHARLOTTE PTCLDY 60 52 74 SE13 30.06F  
GREENSBORO MOCLDY 58 55 90 SE7 30.08F  
WINSTON-SALEM CLOUDY 60 52 74 E5 30.10S  
RALEIGH-DURHAM CLOUDY 56 51 84 SE6 30.13F  
FORT BRAGG CLEAR 55 51 88 E5 30.11F  
FAYETTEVILLE CLEAR 55 53 93 E6 30.11S  
BURLINGTON CLOUDY 58 54 86 VRB6 30.10F  
LAURINBURG MOCLDY 57 54 89 E8 30.10S  

 
 
NCZ011-015-027-028-043-044-047-080-103-300900-  
NORTHEASTERN NORTH CAROLINA  
 
CITY SKY/WX TMP DP RH WIND PRES REMARKS
 
ROCKY MT-WILSO CLOUDY 51 49 92 CALM 30.16R  
GREENVILLE PTCLDY 46 45 93 CALM 30.16S  
WASHINGTON CLEAR 45 44 96 CALM 30.15S  
ELIZABETH CITY CLEAR 45 44 97 NE3 30.14F  
MANTEO CLEAR 46 44 93 CALM 30.14S  
CAPE HATTERAS CLEAR 53 45 74 NE5 30.11F  

 
 
NCZ078-087-090-091-093-098-101-300900-  
SOUTHEASTERN NORTH CAROLINA  
 
CITY SKY/WX TMP DP RH WIND PRES REMARKS
 
LUMBERTON CLOUDY 57 56 96 E9 30.09S  
GOLDSBORO CLEAR 49 49 100 CALM 30.12F  
KINSTON CLEAR 49 47 92 CALM 30.14F  
KENANSVILLE PTCLDY 46 46 100 CALM 30.13F FOG  
NEW BERN CLEAR 49 48 97 CALM 30.14F  
CHERRY POINT NOT AVBL  
BEAUFORT CLEAR 52 50 93 NE6 30.12S  
JACKSONVILLE CLEAR 53 50 89 NE9 30.12S  
WILMINGTON CLEAR 55 54 96 NE7 30.10F  

 
 
 
 
CLICK HERE TO GO TO PREVIOUS BULLETINS.

The Nexlab NC Page Main Text Page